Terug naar catalogus

STARLINK-33787

ActiefCommunicatieVLEO
NORAD 63519·PAYLOAD·🇺🇸 United States

Gelanceerd Apr 7, 2025 vanaf Vandenberg Space Force Base

Loading…

Volgende Passages (komende 24 uur)

TLE

VersSource: CelesTrak SupGP

Epoch: Sep 15, 2026, 02:57 UTC

1 63519C 25071AC  26258.12340278  .00068387  00000+0  20202-2 0  2586
2 63519  53.1587 340.5091 0001148  92.7386 344.3379 15.34361736    19

Volg STARLINK-33787 in realtime met AllMySat

Download on the App Store